When you browse on this site, cookies collect data to enhance your experience and personalize the content and advertising you see.
Visit our Privacy Policy to learn more. By continuing to use the site, you agree to this use of cookies and data.
  • In Spain
  • List of Countries
  • For 7 days
  • Water Temperature
  • Weather Map
  • Weather Widgets
  • user-avatar
    Login

    Hourly Weather Gluhov

    Today, 7 June, Sunday

    Time Temperature Precipitation Wind Pressure Humidity
    00:00 +18°C° 0 mm 2 mps 746 mmHg 94%
    01:00 +17°C° 0 mm 2 mps 746 mmHg 93%
    02:00 +17°C° 0 mm 2 mps 746 mmHg 93%
    03:00 +17°C° 0 mm 2 mps 746 mmHg 93%
    04:00 +17°C° 0 mm 2 mps 747 mmHg 93%
    05:00 +17°C° 0 mm 2 mps 747 mmHg 93%
    06:00 +18°C° 0 mm 2 mps 747 mmHg 89%
    07:00 +20°C° 0 mm 2 mps 747 mmHg 85%
    08:00 +23°C° 0 mm 2 mps 747 mmHg 81%
    09:00 +24°C° 0 mm 3 mps 747 mmHg 78%
    10:00 +25°C° 0 mm 3 mps 748 mmHg 74%
    11:00 +26°C° 0 mm 3 mps 748 mmHg 70%
    12:00 +27°C° 0 mm 3 mps 748 mmHg 70%
    13:00 +27°C° 0 mm 3 mps 748 mmHg 69%
    14:00 +27°C° 0 mm 3 mps 748 mmHg 68%
    15:00 +27°C° 0 mm 3 mps 748 mmHg 71%
    16:00 +27°C° 0 mm 3 mps 747 mmHg 74%
    17:00 +27°C° 0 mm 2 mps 747 mmHg 76%
    18:00 +25°C° 0 mm 2 mps 747 mmHg 80%
    19:00 +23°C° 0 mm 2 mps 747 mmHg 84%
    20:00 +20°C° 0 mm 2 mps 747 mmHg 88%
    21:00 +19°C° 0 mm 2 mps 747 mmHg 89%
    22:00 +19°C° 0 mm 2 mps 747 mmHg 89%
    23:00 +18°C° 0 mm 2 mps 747 mmHg 90%

    Tomorrow, 8 June, Monday

    Time Temperature Precipitation Wind Pressure Humidity
    00:00 +17°C° 0 mm 2 mps 748 mmHg 90%
    01:00 +17°C° 0 mm 2 mps 748 mmHg 90%
    02:00 +16°C° 0 mm 2 mps 748 mmHg 90%
    03:00 +16°C° 0 mm 2 mps 748 mmHg 89%
    04:00 +17°C° 0 mm 2 mps 747 mmHg 89%
    05:00 +17°C° 0 mm 2 mps 747 mmHg 88%
    06:00 +19°C° 0 mm 2 mps 748 mmHg 85%
    07:00 +21°C° 0 mm 3 mps 748 mmHg 83%
    08:00 +22°C° 0 mm 3 mps 748 mmHg 81%
    09:00 +25°C° 0 mm 3 mps 748 mmHg 77%
    10:00 +26°C° 0 mm 3 mps 748 mmHg 74%
    11:00 +27°C° 0 mm 4 mps 748 mmHg 71%
    12:00 +27°C° 0 mm 4 mps 748 mmHg 69%
    13:00 +28°C° 0 mm 4 mps 748 mmHg 68%
    14:00 +28°C° 0 mm 4 mps 747 mmHg 66%
    15:00 +28°C° 0 mm 3 mps 747 mmHg 69%
    16:00 +27°C° 0 mm 3 mps 747 mmHg 73%
    17:00 +27°C° 0 mm 3 mps 747 mmHg 76%
    18:00 +26°C° 0 mm 3 mps 747 mmHg 80%
    19:00 +24°C° 0 mm 3 mps 747 mmHg 83%
    20:00 +21°C° 0 mm 2 mps 747 mmHg 87%
    21:00 +21°C° 0 mm 2 mps 747 mmHg 88%
    22:00 +20°C° 0 mm 2 mps 747 mmHg 90%
    23:00 +19°C° 0 mm 2 mps 747 mmHg 92%

    Day after tomorrow, 9 June, Tuesday

    Time Temperature Precipitation Wind Pressure Humidity
    00:00 +19°C° 0 mm 2 mps 747 mmHg 92%
    01:00 +18°C° 0 mm 2 mps 747 mmHg 92%
    02:00 +18°C° 0 mm 2 mps 747 mmHg 92%
    03:00 +18°C° 0 mm 3 mps 747 mmHg 91%
    04:00 +18°C° 0 mm 3 mps 747 mmHg 91%
    05:00 +18°C° 0 mm 3 mps 747 mmHg 91%
    06:00 +20°C° 0 mm 3 mps 747 mmHg 88%
    07:00 +22°C° 0 mm 3 mps 747 mmHg 85%
    08:00 +23°C° 0 mm 4 mps 747 mmHg 81%
    09:00 +26°C° 0 mm 4 mps 747 mmHg 77%
    10:00 +27°C° 0 mm 4 mps 747 mmHg 72%
    11:00 +28°C° 0 mm 4 mps 748 mmHg 68%
    12:00 +28°C° 0 mm 4 mps 747 mmHg 66%
    13:00 +29°C° 0 mm 4 mps 747 mmHg 65%
    14:00 +29°C° 0 mm 4 mps 747 mmHg 64%
    15:00 +29°C° 0 mm 3 mps 747 mmHg 68%
    16:00 +28°C° 0 mm 3 mps 747 mmHg 72%
    17:00 +28°C° 0 mm 3 mps 747 mmHg 76%
    18:00 +27°C° 0 mm 3 mps 747 mmHg 78%
    19:00 +25°C° 0 mm 2 mps 747 mmHg 81%
    20:00 +23°C° 0 mm 2 mps 747 mmHg 84%
    21:00 +21°C° 0 mm 2 mps 747 mmHg 86%
    22:00 +21°C° 0 mm 2 mps 747 mmHg 87%
    23:00 +20°C° 0 mm 3 mps 747 mmHg 88%

    10 June, Wednesday

    Time Temperature Precipitation Wind Pressure Humidity
    00:00 +20°C° 0 mm 3 mps 747 mmHg 89%
    01:00 +19°C° 0 mm 3 mps 747 mmHg 91%
    02:00 +19°C° 0 mm 3 mps 747 mmHg 92%
    03:00 +19°C° 0 mm 3 mps 747 mmHg 92%
    04:00 +19°C° 0 mm 3 mps 747 mmHg 92%
    05:00 +20°C° 0 mm 3 mps 747 mmHg 91%
    06:00 +21°C° 0 mm 3 mps 747 mmHg 88%
    07:00 +24°C° 0 mm 3 mps 747 mmHg 85%
    08:00 +25°C° 0 mm 3 mps 747 mmHg 82%
    09:00 +26°C° 0.2 mm 3 mps 747 mmHg 77%
    10:00 +28°C° 0.2 mm 3 mps 747 mmHg 72%
    11:00 +29°C° 0.2 mm 3 mps 747 mmHg 67%
    12:00 +29°C° 0.1 mm 3 mps 747 mmHg 66%
    13:00 +29°C° 0.1 mm 3 mps 747 mmHg 66%
    14:00 +29°C° 0.1 mm 3 mps 746 mmHg 65%
    15:00 +29°C° 0.1 mm 3 mps 746 mmHg 69%
    16:00 +29°C° 0.1 mm 3 mps 746 mmHg 72%
    17:00 +29°C° 0.1 mm 2 mps 746 mmHg 75%
    18:00 +27°C° 0.1 mm 2 mps 746 mmHg 79%
    19:00 +25°C° 0.1 mm 2 mps 746 mmHg 82%
    20:00 +24°C° 0.1 mm 2 mps 746 mmHg 85%
    21:00 +22°C° 0 mm 3 mps 746 mmHg 87%
    22:00 +21°C° 0 mm 3 mps 746 mmHg 89%
    23:00 +21°C° 0 mm 3 mps 746 mmHg 91%

    11 June, Thursday

    Time Temperature Precipitation Wind Pressure Humidity
    00:00 +20°C° 0 mm 3 mps 746 mmHg 92%
    01:00 +20°C° 0 mm 3 mps 746 mmHg 93%
    02:00 +19°C° 0 mm 3 mps 746 mmHg 93%
    03:00 +19°C° 0 mm 3 mps 746 mmHg 93%
    04:00 +20°C° 0 mm 3 mps 746 mmHg 93%
    05:00 +20°C° 0 mm 3 mps 745 mmHg 92%
    06:00 +21°C° 0 mm 3 mps 745 mmHg 89%
    07:00 +24°C° 0 mm 3 mps 746 mmHg 86%
    08:00 +25°C° 0 mm 4 mps 746 mmHg 83%
    09:00 +27°C° 0 mm 4 mps 746 mmHg 78%
    10:00 +28°C° 0 mm 4 mps 746 mmHg 74%
    11:00 +29°C° 0 mm 4 mps 746 mmHg 69%
    12:00 +29°C° 0 mm 4 mps 745 mmHg 69%
    13:00 +29°C° 0 mm 5 mps 745 mmHg 68%
    14:00 +30°C° 0 mm 5 mps 745 mmHg 68%
    15:00 +29°C° 0 mm 5 mps 744 mmHg 71%
    16:00 +29°C° 0 mm 4 mps 744 mmHg 75%
    17:00 +29°C° 0 mm 4 mps 744 mmHg 78%
    18:00 +27°C° 0.1 mm 4 mps 744 mmHg 82%
    19:00 +25°C° 0.1 mm 3 mps 744 mmHg 85%
    20:00 +24°C° 0.1 mm 3 mps 744 mmHg 89%
    21:00 +22°C° 0 mm 3 mps 744 mmHg 90%
    22:00 +21°C° 0 mm 3 mps 744 mmHg 91%
    23:00 +20°C° 0 mm 3 mps 744 mmHg 92%

    12 June, Friday

    Time Temperature Precipitation Wind Pressure Humidity
    00:00 +20°C° 0 mm 3 mps 744 mmHg 92%
    01:00 +20°C° 0 mm 3 mps 744 mmHg 92%
    02:00 +19°C° 0 mm 4 mps 744 mmHg 91%
    03:00 +19°C° 0 mm 4 mps 744 mmHg 91%
    04:00 +19°C° 0 mm 4 mps 743 mmHg 90%
    05:00 +19°C° 0 mm 4 mps 743 mmHg 89%
    06:00 +21°C° 0 mm 4 mps 744 mmHg 86%
    07:00 +22°C° 0 mm 4 mps 744 mmHg 82%
    08:00 +25°C° 0 mm 5 mps 744 mmHg 79%
    09:00 +26°C° 0 mm 5 mps 744 mmHg 76%
    10:00 +27°C° 0 mm 5 mps 744 mmHg 74%
    11:00 +29°C° 0 mm 5 mps 744 mmHg 72%
    12:00 +29°C° 0 mm 5 mps 744 mmHg 70%
    13:00 +30°C° 0 mm 5 mps 744 mmHg 69%
    14:00 +30°C° 0 mm 5 mps 743 mmHg 67%
    15:00 +30°C° 0.2 mm 4 mps 743 mmHg 71%
    16:00 +30°C° 0.2 mm 4 mps 743 mmHg 74%
    17:00 +29°C° 0.2 mm 3 mps 743 mmHg 77%
    18:00 +27°C° 0 mm 3 mps 743 mmHg 80%
    19:00 +26°C° 0 mm 3 mps 743 mmHg 83%
    20:00 +24°C° 0 mm 3 mps 743 mmHg 86%
    21:00 +22°C° 0 mm 3 mps 743 mmHg 87%
    22:00 +22°C° 0 mm 3 mps 743 mmHg 88%
    23:00 +21°C° 0 mm 3 mps 743 mmHg 89%
    Show more